Latest Weather Observations for Terrey Hills

IDN60801

Issued at 7:05 am EST Wednesday 23 July 2014 (issued every 30 minutes, with the page automatically refreshed every 10 minutes)

About weather observations | Map of weather stations | Latest weather observations for NSW | Other Formats
Station Details ID: 066059 Name: TERREY HILLS AWS Lat: -33.69 Lon: 151.23 Height: 199.0 m
Data from the previous 72 hours. | See also: Recent months at Terrey Hills
Date/Time
EST
Temp
°C
App
Temp
°C
Dew
Point
Rel
Hum
%
Delta-T
°C
Wind Press
QNH
hPa
Press
MSL
hPa
Rain
since 9 am
mm
Dir
 
Spd
km/h
Gust
km/h
Spd
kts
Gust
kts
23/07:00am 8.1 5.9 8.0 99 0.0 W 9 11 5 6 - - 0.0
23/06:30am 8.1 5.6 8.0 99 0.0 W 11 11 6 6 - - 0.0
23/06:00am 8.2 6.1 8.1 99 0.0 W 9 9 5 5 - - 0.0
23/05:30am 8.0 5.8 7.9 99 0.0 WNW 9 11 5 6 - - 0.0
23/05:00am 8.6 6.6 8.5 99 0.0 W 9 11 5 6 - - 0.0
23/04:30am 8.7 6.3 8.6 99 0.0 W 11 11 6 6 - - 0.0
23/04:00am 8.7 6.7 8.6 99 0.0 W 9 11 5 6 - - 0.0
23/03:30am 8.7 6.7 8.6 99 0.0 W 9 11 5 6 - - 0.0
23/03:00am 8.8 6.8 8.7 99 0.0 WNW 9 11 5 6 - - 0.0
23/02:30am 8.9 6.9 8.8 99 0.0 W 9 11 5 6 - - 0.0
23/02:00am 9.3 7.4 9.0 98 0.1 W 9 13 5 7 - - 0.0
23/01:30am 9.2 7.3 8.9 98 0.1 W 9 13 5 7 - - 0.0
23/01:00am 9.5 7.6 8.9 96 0.3 W 9 13 5 7 - - 0.0
23/12:30am 9.8 8.3 9.0 95 0.4 W 7 9 4 5 - - 0.0
23/12:00am 10.1 8.8 9.3 95 0.4 W 6 7 3 4 - - 0.0
 
Date/Time
EST
Temp
°C
App
Temp
°C
Dew
Point
Rel
Hum
%
Delta-T
°C
Wind Press
QNH
hPa
Press
MSL
hPa
Rain
since 9 am
mm
Dir
 
Spd
km/h
Gust
km/h
Spd
kts
Gust
kts
22/11:30pm 9.9 8.4 9.3 96 0.3 W 7 9 4 5 - - 0.0
22/11:00pm 9.6 8.9 8.5 93 0.5 W 2 7 1 4 - - 0.0
22/10:30pm 11.2 11.0 8.9 86 1.2 CALM 0 4 0 2 - - 0.0
22/10:00pm 11.7 10.8 9.3 85 1.2 ESE 4 6 2 3 - - 0.0
22/09:30pm 12.2 11.0 9.6 84 1.3 ESE 6 6 3 3 - - 0.0
22/09:00pm 12.2 12.3 10.1 87 1.1 CALM 0 0 0 0 - - 0.0
22/08:30pm 10.9 10.7 9.2 89 0.9 CALM 0 0 0 0 - - 0.0
22/08:00pm 11.7 10.9 9.6 87 1.1 E 4 6 2 3 - - 0.0
22/07:30pm 11.1 10.2 9.4 89 0.9 E 4 6 2 3 - - 0.0
22/07:00pm 11.8 11.0 9.7 87 1.1 E 4 6 2 3 - - 0.0
22/06:30pm 11.9 10.8 9.8 87 1.1 ESE 6 7 3 4 - - 0.0
22/06:00pm 11.9 10.8 10.0 88 1.0 E 6 7 3 4 - - 0.0
22/05:30pm 12.2 11.0 9.6 84 1.3 ESE 6 7 3 4 - - 0.0
22/05:00pm 12.7 11.4 9.3 80 1.7 ESE 6 7 3 4 - - 0.0
22/04:30pm 13.5 12.1 9.6 77 2.0 ESE 7 11 4 6 - - 0.0
22/04:00pm 14.2 12.8 9.6 74 2.4 ESE 7 13 4 7 - - 0.0
22/03:30pm 14.3 12.8 9.3 72 2.6 ESE 7 11 4 6 - - 0.0
22/03:00pm 14.8 13.4 9.4 70 2.8 ESE 7 13 4 7 - - 0.0
22/02:30pm 15.6 13.8 9.3 66 3.3 E 9 15 5 8 - - 0.0
22/02:00pm 15.2 13.5 9.8 70 2.8 E 9 13 5 7 - - 0.0
22/01:30pm 16.4 15.1 9.8 65 3.5 E 7 17 4 9 - - 0.0
22/01:00pm 15.7 14.9 9.6 67 3.2 ESE 4 9 2 5 - - 0.0
22/12:30pm 16.3 15.3 10.4 68 3.2 S 6 11 3 6 - - 0.0
22/12:00pm 14.9 14.0 9.3 69 2.9 SW 4 13 2 7 - - 0.0
22/11:30am 14.8 13.4 9.4 70 2.8 SW 7 13 4 7 - - 0.0
22/11:00am 14.2 12.3 9.0 71 2.7 SW 9 15 5 8 - - 0.0
22/10:30am 13.6 11.4 9.3 75 2.2 WSW 11 17 6 9 - - 0.0
22/10:00am 12.9 11.3 10.1 83 1.5 SW 9 17 5 9 - - 0.0
22/09:30am 11.5 9.8 9.9 90 0.8 W 9 13 5 7 - - 0.0
22/09:00am 10.3 8.9 9.5 95 0.4 W 7 13 4 7 - - 0.2
22/08:30am 9.3 7.4 9.2 99 0.0 W 9 17 5 9 - - 0.2
22/08:00am 8.7 6.7 8.6 99 0.0 W 9 13 5 7 - - 0.2
22/07:30am 8.2 5.7 8.1 99 0.0 W 11 15 6 8 - - 0.2
22/07:00am 7.7 5.1 7.6 99 0.0 W 11 13 6 7 - - 0.2
22/06:30am 7.7 5.1 7.6 99 0.0 W 11 15 6 8 - - 0.2
22/06:00am 8.2 5.7 8.1 99 0.0 W 11 13 6 7 - - 0.2
22/05:30am 8.1 5.6 8.0 99 0.0 W 11 13 6 7 - - 0.0
22/05:00am 8.1 5.6 8.0 99 0.0 WNW 11 13 6 7 - - 0.0
22/04:30am 8.5 6.0 8.4 99 0.0 WNW 11 13 6 7 - - 0.0
22/04:00am 8.9 6.9 8.8 99 0.0 W 9 11 5 6 - - 0.0
22/03:30am 9.3 7.8 9.2 99 0.0 W 7 9 4 5 - - 0.0
22/03:00am 9.5 7.7 9.4 99 0.1 W 9 9 5 5 - - 0.0
22/02:30am 9.2 7.7 9.1 99 0.0 W 7 11 4 6 - - 0.0
22/02:00am 9.4 7.9 9.1 98 0.1 W 7 11 4 6 - - 0.0
22/01:30am 10.0 8.3 9.7 98 0.2 W 9 15 5 8 - - 0.0
22/01:00am 10.1 8.8 9.8 98 0.2 W 7 13 4 7 - - 0.0
22/12:30am 10.3 9.0 10.1 99 0.1 W 7 9 4 5 - - 0.0
22/12:00am 10.1 8.8 10.0 99 0.1 W 7 9 4 5 - - 0.0
 
Date/Time
EST
Temp
°C
App
Temp
°C
Dew
Point
Rel
Hum
%
Delta-T
°C
Wind Press
QNH
hPa
Press
MSL
hPa
Rain
since 9 am
mm
Dir
 
Spd
km/h
Gust
km/h
Spd
kts
Gust
kts
21/11:30pm 10.2 9.9 10.1 99 0.1 W 2 6 1 3 - - 0.0
21/11:00pm 9.9 9.8 9.4 97 0.3 CALM 0 0 0 0 - - 0.0
21/10:30pm 11.2 11.4 10.4 95 0.4 CALM 0 4 0 2 - - 0.0
21/10:00pm 11.6 10.7 10.7 94 0.5 SE 6 9 3 5 - - 0.0
21/09:30pm 11.7 12.0 10.9 95 0.4 CALM 0 0 0 0 - - 0.0
21/09:00pm 11.4 11.6 10.5 94 0.5 CALM 0 0 0 0 - - 0.0
21/08:30pm 11.8 11.6 10.5 92 0.7 S 2 4 1 2 - - 0.0
21/08:00pm 11.9 11.0 10.6 92 0.7 SSE 6 7 3 4 - - 0.0
21/07:30pm 11.7 11.1 10.3 91 0.7 SSE 4 6 2 3 - - 0.0
21/07:00pm 11.8 11.2 10.4 91 0.7 SSW 4 9 2 5 - - 0.0
21/06:30pm 11.9 11.3 10.3 90 0.8 S 4 7 2 4 - - 0.0
21/06:00pm 12.0 11.3 10.2 89 0.9 S 4 6 2 3 - - 0.0
21/05:30pm 12.2 11.6 10.4 89 0.9 S 4 9 2 5 - - 0.0
21/05:00pm 12.4 12.5 10.3 87 1.1 CALM 0 4 0 2 - - 0.0
21/04:30pm 12.6 11.6 10.3 86 1.2 SE 6 9 3 5 - - 0.0
21/04:00pm 12.9 11.8 10.1 83 1.5 SE 6 11 3 6 - - 0.0
21/03:30pm 13.4 11.7 9.8 79 1.9 ESE 9 17 5 9 - - 0.0
21/03:00pm 14.5 12.8 9.7 73 2.5 SSE 9 17 5 9 - - 0.0
21/02:30pm 14.8 13.1 9.8 72 2.6 ESE 9 19 5 10 - - 0.0
21/02:00pm 15.1 13.4 8.3 64 3.5 SSE 7 15 4 8 - - 0.0
21/01:30pm 14.9 13.2 8.2 64 3.4 SSW 7 15 4 8 - - 0.0
21/01:00pm 15.4 13.7 8.2 62 3.7 SSW 7 19 4 10 - - 0.0
21/12:30pm 14.4 12.9 8.4 67 3.0 S 6 11 3 6 - - 0.0
21/12:00pm 14.5 12.5 8.5 67 3.1 SSW 9 13 5 7 - - 0.0
21/11:30am 13.6 11.8 8.0 69 2.8 SW 7 13 4 7 - - 0.0
21/11:00am 13.3 11.1 8.0 70 2.6 SW 9 13 5 7 - - 0.0
21/10:30am 12.7 10.7 7.2 69 2.7 WSW 7 13 4 7 - - 0.0
21/10:00am 11.8 9.3 6.5 70 2.5 W 9 13 5 7 - - 0.0
21/09:30am 11.6 8.8 6.9 73 2.3 W 11 17 6 9 - - 0.0
21/09:00am 10.5 7.6 6.6 77 1.9 W 11 15 6 8 - - 0.2
21/08:30am 10.0 7.1 6.7 80 1.6 W 11 15 6 8 - - 0.2
21/08:00am 8.8 6.0 6.8 87 0.9 W 11 17 6 9 - - 0.2
21/07:30am 8.5 5.6 6.6 88 0.9 W 11 15 6 8 - - 0.2
21/07:00am 8.6 5.7 6.4 86 1.0 W 11 17 6 9 - - 0.2
21/06:30am 8.8 5.5 6.6 86 1.0 W 13 17 7 9 - - 0.2
21/06:00am 8.2 5.0 7.0 92 0.6 W 13 15 7 8 - - 0.2
21/05:30am 8.2 5.4 7.1 93 0.5 W 11 15 6 8 - - 0.2
21/05:00am 8.3 5.9 7.2 93 0.5 WNW 9 13 5 7 - - 0.2
21/04:30am 8.3 5.6 7.2 93 0.5 WNW 11 15 6 8 - - 0.0
21/04:00am 8.4 5.7 7.3 93 0.5 W 11 15 6 8 - - 0.0
21/03:30am 8.6 6.2 7.2 91 0.7 W 9 11 5 6 - - 0.0
21/03:00am 8.7 6.3 7.2 90 0.7 W 9 11 5 6 - - 0.0
21/02:30am 8.7 6.7 7.3 91 0.7 WNW 7 9 4 5 - - 0.0
21/02:00am 8.8 6.8 6.9 88 0.9 W 7 9 4 5 - - 0.0
21/01:30am 8.7 6.3 7.0 89 0.8 W 9 11 5 6 - - 0.0
21/01:00am 8.3 5.5 7.1 92 0.6 WNW 11 13 6 7 - - 0.0
21/12:30am 8.8 6.1 7.3 90 0.7 W 11 15 6 8 - - 0.0
21/12:00am 9.0 6.4 7.8 92 0.6 W 11 15 6 8 - - 0.0
 
Date/Time
EST
Temp
°C
App
Temp
°C
Dew
Point
Rel
Hum
%
Delta-T
°C
Wind Press
QNH
hPa
Press
MSL
hPa
Rain
since 9 am
mm
Dir
 
Spd
km/h
Gust
km/h
Spd
kts
Gust
kts
20/11:30pm 9.3 7.1 7.7 90 0.8 W 9 11 5 6 - - 0.0
20/11:00pm 9.7 7.6 8.1 90 0.8 W 9 13 5 7 - - 0.0
20/10:30pm 9.7 7.5 8.0 89 0.8 W 9 9 5 5 - - 0.0
20/10:00pm 11.4 9.7 8.3 81 1.5 SSW 7 9 4 5 - - 0.0
20/09:30pm 11.6 9.9 8.5 81 1.5 S 7 13 4 7 - - 0.0
20/09:00pm 11.7 10.0 8.4 80 1.6 S 7 13 4 7 - - 0.0
20/08:30pm 11.6 10.0 8.6 82 1.5 SSW 7 13 4 7 - - 0.0
20/08:00pm 11.7 10.1 8.6 81 1.6 S 7 11 4 6 - - 0.0
20/07:30pm 11.7 10.2 8.6 81 1.6 S 6 11 3 6 - - 0.0
20/07:00pm 11.5 9.9 8.2 80 1.6 SSW 6 9 3 5 - - 0.0
20/06:30pm 11.6 10.0 7.9 78 1.8 S 6 9 3 5 - - 0.0
20/06:00pm 11.8 10.9 7.7 76 2.0 S 2 7 1 4 - - 0.0
20/05:30pm 12.2 10.5 7.7 74 2.2 S 6 15 3 8 - - 0.0
20/05:00pm 12.5 10.2 7.6 72 2.4 S 9 17 5 9 - - 0.0
20/04:30pm 12.8 11.0 7.9 72 2.4 S 7 17 4 9 - - 0.0
20/04:00pm 13.0 11.3 8.3 73 2.4 S 7 19 4 10 - - 0.0
20/03:30pm 13.1 10.2 8.2 72 2.5 S 13 24 7 13 - - 0.0
20/03:00pm 13.2 9.9 7.9 70 2.6 S 15 26 8 14 - - 0.0
20/02:30pm 13.6 10.7 8.0 69 2.8 S 13 20 7 11 - - 0.0
20/02:00pm 13.2 9.9 8.1 71 2.6 SSW 15 28 8 15 - - 0.0
20/01:30pm 12.7 9.9 8.4 75 2.2 S 13 26 7 14 - - 0.0
20/01:00pm 11.3 9.5 9.6 89 0.9 WSW 9 20 5 11 - - 0.0
20/12:30pm 10.9 8.3 9.3 90 0.8 WSW 13 20 7 11 - - 0.0
20/12:00pm 11.2 8.4 8.4 83 1.4 SW 13 22 7 12 - - 0.0
20/11:30am 12.3 9.4 8.0 75 2.1 SW 13 24 7 13 - - 0.0
20/11:00am 12.2 8.9 7.9 75 2.1 SW 15 22 8 12 - - 0.0
20/10:30am 12.3 8.4 7.0 70 2.6 SSW 17 33 9 18 - - 0.0
20/10:00am 11.8 8.1 6.3 69 2.6 SW 15 26 8 14 - - 0.0
20/09:30am 10.9 6.4 6.1 72 2.3 SW 19 28 10 15 - - 0.0
20/09:00am 10.1 5.8 5.3 72 2.2 SW 17 30 9 16 - - 0.0
20/08:30am 9.7 5.7 4.9 72 2.2 SW 15 26 8 14 - - 0.0
20/08:00am 9.5 5.0 4.3 70 2.3 WSW 17 24 9 13 - - 0.0
20/07:30am 9.0 4.8 4.0 71 2.2 WSW 15 20 8 11 - - 0.0

Other Formats:

Comma delimited format used in spreadsheet applications
http://www.bom.gov.au/fwo/IDN60801/IDN60801.94759.axf

JavaScript Object Notation format (JSON) in row-major order
http://www.bom.gov.au/fwo/IDN60801/IDN60801.94759.json